period_start,C,m1,H,J0,J1,J2,J3,J4,J5,JA,JB,JC,JD,JJ,JK,JN,#
2017-10-30 00:03:51,0.03,1.13,0.00,17.19,20.62,23.75,14.28,46.48,1017.59,2054.03,3091.37,2834.28,3197.08,600.04,608.57,40.36,0000 0000 0000 0000 000000
2017-10-30 00:08:52,0.00,1.13,0.00,17.18,20.60,23.73,14.25,46.39,1017.59,2054.03,3091.01,2834.01,3197.00,600.06,608.65,40.41,0000 0000 0000 0000 000000
2017-10-30 00:13:53,-0.00,1.13,0.00,17.17,20.59,23.75,14.24,46.40,1017.58,2054.02,3090.92,2834.00,3196.98,600.26,608.81,40.46,0000 0000 0000 0000 000000
2017-10-30 00:18:54,0.02,1.13,0.00,17.15,20.59,23.78,14.20,46.46,1017.58,2054.10,3090.32,2834.00,3196.90,599.77,608.43,40.52,0000 0000 0000 0000 000000
2017-10-30 00:23:56,0.03,1.13,0.00,17.12,20.59,23.74,14.23,46.31,1017.59,2054.27,3090.00,2833.97,3196.32,599.81,608.65,40.57,0000 0000 0000 0000 000000
2017-10-30 00:28:57,0.01,1.13,0.00,17.12,20.57,23.74,14.29,46.38,1017.59,2054.34,3089.86,2833.98,3196.02,600.20,608.88,40.62,0000 0000 0000 0000 000000
2017-10-30 00:33:59,0.01,1.13,0.00,17.13,20.57,23.74,14.23,46.38,1017.59,2054.24,3089.11,2833.70,3195.98,600.00,608.67,40.67,0000 0000 0000 0000 000000
2017-10-30 00:39:00,0.03,1.14,0.00,17.14,20.57,23.68,14.24,46.34,1017.59,2054.32,3088.99,2833.15,3195.89,599.92,608.65,40.72,0000 0000 0000 0000 000000
2017-10-30 00:44:02,0.04,1.14,0.00,17.15,20.57,23.68,14.31,46.44,1017.59,2054.49,3088.77,2833.03,3195.32,600.31,608.94,40.77,0000 0000 0000 0000 000000
2017-10-30 00:49:03,0.01,1.14,0.00,17.18,20.57,23.70,14.22,46.51,1017.59,2054.54,3088.19,2833.00,3195.04,600.15,608.72,40.82,0000 0000 0000 0000 000000
2017-10-30 00:54:04,0.01,1.14,0.00,17.18,20.57,23.70,14.26,46.50,1017.59,2054.52,3088.00,2832.99,3194.99,600.17,608.82,40.87,0000 0000 0000 0000 000000
2017-10-30 00:59:06,0.01,1.14,0.00,17.19,20.57,23.70,14.25,46.48,1017.59,2054.56,3087.69,2832.92,3194.86,600.24,608.73,40.92,0000 0000 0000 0000 000000
2017-10-30 01:04:07,0.02,1.14,0.00,17.17,20.57,23.70,14.24,46.46,1017.59,2054.43,3087.03,2832.27,3194.12,600.06,608.57,40.97,0000 0000 0000 0000 000000
2017-10-30 01:09:08,0.01,1.14,0.00,17.20,20.57,23.72,14.23,46.52,1017.59,2054.33,3086.74,2832.02,3194.00,599.93,608.53,41.02,0000 0000 0000 0000 000000
2017-10-30 01:14:09,0.00,1.14,0.00,17.19,20.57,23.70,14.21,46.42,1017.59,2054.29,3086.08,2831.99,3193.93,599.60,608.22,41.07,0000 0000 0000 0000 000000
2017-10-30 01:19:11,0.01,1.14,0.00,17.19,20.57,23.73,14.23,46.43,1017.59,2054.18,3085.99,2831.96,3193.30,600.02,608.46,41.12,0000 0000 0000 0000 000000
2017-10-30 01:24:12,0.02,1.14,0.00,17.15,20.58,23.69,14.27,46.48,1017.59,2054.14,3085.74,2831.70,3193.01,600.04,608.72,41.17,0000 0000 0000 0000 000000
2017-10-30 01:29:13,0.03,1.14,0.00,17.18,20.59,23.71,14.28,46.58,1017.59,2054.20,3085.05,2831.12,3192.99,600.29,608.85,41.22,0000 0000 0000 0000 000000
2017-10-30 01:34:14,0.01,1.14,0.00,17.19,20.59,23.70,14.21,46.48,1017.59,2054.17,3084.98,2831.00,3192.90,600.12,608.60,41.27,0000 0000 0000 0000 000000
2017-10-30 01:39:16,0.02,1.15,0.00,17.20,20.59,23.69,14.31,46.48,1017.59,2054.26,3084.44,2830.99,3192.35,599.94,608.55,41.33,0000 0000 0000 0000 000000
2017-10-30 01:44:17,0.00,1.15,0.00,17.23,20.59,23.69,14.25,46.40,1017.59,2054.20,3084.00,2830.94,3192.01,599.98,608.44,41.38,0000 0000 0000 0000 000000
2017-10-30 01:49:18,0.02,1.15,0.00,17.25,20.59,23.67,14.28,46.46,1017.59,2054.09,3083.92,2830.37,3191.97,600.09,608.45,41.43,0000 0000 0000 0000 000000
2017-10-30 01:54:20,0.02,1.15,0.00,17.27,20.59,23.68,14.23,46.46,1017.59,2054.05,3083.18,2830.03,3191.65,599.95,608.37,41.48,0000 0000 0000 0000 000000
2017-10-30 01:59:21,0.00,1.15,0.00,17.23,20.59,23.66,14.28,46.48,1017.59,2054.05,3083.00,2830.00,3191.05,600.04,608.47,41.53,0000 0000 0000 0000 000000
2017-10-30 02:04:22,0.01,1.15,0.00,17.23,20.59,23.68,14.14,46.49,1017.59,2054.05,3082.70,2830.00,3191.00,599.61,607.93,41.58,0000 0000 0000 0000 000000
2017-10-30 02:09:24,0.01,1.15,0.00,17.24,20.59,23.67,14.36,46.57,1017.59,2054.08,3082.03,2829.84,3190.94,600.22,608.68,41.63,0000 0000 0000 0000 000000
2017-10-30 02:14:25,0.04,1.15,0.00,17.26,20.59,23.70,14.17,46.52,1017.59,2054.13,3081.91,2829.27,3190.41,599.83,608.10,41.68,0000 0000 0000 0000 000000
2017-10-30 02:19:26,0.03,1.15,0.00,17.27,20.60,23.67,14.18,46.43,1017.59,2054.28,3081.15,2829.02,3190.03,600.00,608.33,41.73,0000 0000 0000 0000 000000
2017-10-30 02:24:28,-0.02,1.15,0.00,17.25,20.60,23.68,14.29,46.48,1017.61,2054.11,3081.00,2828.99,3189.99,599.91,608.27,41.78,0000 0000 0000 0000 000000
2017-10-30 02:29:29,0.02,1.15,0.00,17.28,20.60,23.75,14.24,46.48,1017.62,2054.04,3080.49,2828.95,3189.66,599.78,608.26,41.83,0000 0000 0000 0000 000000
2017-10-30 02:34:30,0.04,1.16,0.00,17.27,20.61,23.68,14.16,46.51,1017.61,2054.12,3080.03,2828.59,3189.08,599.79,608.16,41.88,0000 0000 0000 0000 000000
2017-10-30 02:39:32,0.01,1.16,0.00,17.28,20.62,23.66,14.23,46.44,1017.60,2054.15,3079.95,2828.07,3189.00,599.94,608.20,41.93,0000 0000 0000 0000 000000
2017-10-30 02:44:33,0.00,1.16,0.00,17.32,20.62,23.70,14.25,46.30,1017.60,2054.12,3079.65,2828.00,3188.93,600.08,608.31,41.98,0000 0000 0000 0000 000000
2017-10-30 02:49:34,0.01,1.16,0.00,17.33,20.62,23.68,14.16,46.22,1017.60,2054.04,3079.02,2827.99,3188.35,599.70,607.92,42.03,0000 0000 0000 0000 000000
2017-10-30 02:54:36,0.01,1.16,0.00,17.34,20.62,23.70,14.17,46.29,1017.59,2054.06,3078.84,2827.92,3188.02,599.85,608.09,42.08,0000 0000 0000 0000 000000
2017-10-30 02:59:37,0.03,1.16,0.00,17.35,20.64,23.69,14.19,46.29,1017.59,2054.06,3078.08,2827.26,3187.99,600.08,608.33,42.13,0000 0000 0000 0000 000000
2017-10-30 03:04:38,0.01,1.16,0.00,17.34,20.64,23.70,14.15,46.33,1017.59,2054.09,3077.98,2827.02,3187.70,599.58,608.02,42.18,0000 0000 0000 0000 000000
2017-10-30 03:09:40,0.02,1.16,0.00,17.38,20.64,23.74,14.17,46.30,1017.59,2054.04,3077.36,2827.00,3187.05,599.86,607.97,42.23,0000 0000 0000 0000 000000
2017-10-30 03:14:41,0.00,1.16,0.00,17.38,20.65,23.70,14.18,46.38,1017.59,2054.02,3077.01,2826.94,3187.00,599.92,608.06,42.29,0000 0000 0000 0000 000000
2017-10-30 03:19:42,0.01,1.16,0.00,17.36,20.67,23.73,14.18,46.31,1017.59,2054.01,3076.96,2826.56,3186.87,599.87,608.14,42.34,0000 0000 0000 0000 000000
2017-10-30 03:24:44,0.04,1.17,0.00,17.41,20.67,23.77,14.25,46.27,1017.59,2054.01,3076.18,2826.05,3186.13,600.24,608.34,42.39,0000 0000 0000 0000 000000
2017-10-30 03:29:45,0.00,1.17,0.00,17.42,20.67,23.75,14.19,46.29,1017.59,2054.00,3076.00,2826.00,3186.00,599.89,607.95,42.44,0000 0000 0000 0000 000000
2017-10-30 03:34:47,0.01,1.17,0.00,17.41,20.69,23.76,14.23,46.38,1017.59,2054.00,3075.86,2825.99,3185.87,600.03,608.12,42.49,0000 0000 0000 0000 000000
2017-10-30 03:39:48,0.04,1.17,0.00,17.44,20.69,23.74,14.21,46.39,1017.59,2054.00,3075.10,2825.61,3185.24,599.90,607.96,42.54,0000 0000 0000 0000 000000
2017-10-30 03:44:49,0.01,1.17,0.00,17.46,20.70,23.79,14.17,46.35,1017.59,2054.00,3074.92,2825.06,3185.01,599.95,607.98,42.59,0000 0000 0000 0000 000000
2017-10-30 03:49:51,0.01,1.17,0.00,17.44,20.72,23.78,14.22,46.36,1017.60,2054.00,3074.19,2825.00,3184.92,600.05,608.07,42.64,0000 0000 0000 0000 000000
2017-10-30 03:54:52,0.01,1.17,0.00,17.51,20.73,23.80,14.23,46.31,1017.61,2054.00,3074.00,2824.96,3184.20,599.94,607.69,42.69,0000 0000 0000 0000 000000
2017-10-30 03:59:53,0.02,1.17,0.00,17.55,20.74,23.83,14.19,46.38,1017.62,2053.99,3073.72,2824.51,3184.00,600.10,607.91,42.74,0000 0000 0000 0000 000000
2017-10-30 04:04:55,0.02,1.17,0.00,17.58,20.76,23.81,14.13,46.30,1017.61,2053.97,3073.03,2824.02,3183.95,600.14,607.95,42.79,0000 0000 0000 0000 000000
2017-10-30 04:09:56,0.02,1.17,0.00,17.57,20.77,23.83,14.17,46.42,1017.62,2053.97,3072.66,2824.00,3183.21,599.99,607.77,42.84,0000 0000 0000 0000 000000
2017-10-30 04:14:57,0.01,1.17,0.00,17.55,20.79,23.83,14.26,46.47,1017.71,2053.96,3072.03,2823.82,3182.99,600.05,607.87,42.89,0000 0000 0000 0000 000000
2017-10-30 04:19:59,0.02,1.18,0.00,17.57,20.79,23.88,14.22,46.42,1017.70,2053.94,3071.96,2823.20,3182.82,599.93,607.74,42.94,0000 0000 0000 0000 000000
2017-10-30 04:25:00,0.01,1.18,0.00,17.59,20.82,23.90,14.17,46.38,1017.63,2053.74,3071.28,2823.01,3182.09,599.63,607.33,42.99,0000 0000 0000 0000 000000
2017-10-30 04:30:01,-0.03,1.18,0.00,17.56,20.83,23.86,14.11,46.33,1017.63,2053.39,3071.00,2822.98,3181.99,600.13,607.94,43.04,0000 0000 0000 0000 000000
2017-10-30 04:35:02,0.02,1.17,0.00,17.59,20.84,23.92,14.18,46.38,1017.63,2053.25,3070.76,2822.65,3181.76,600.04,607.74,43.09,0000 0000 0000 0000 000000
2017-10-30 04:40:03,0.02,1.18,0.00,17.61,20.86,23.94,14.16,46.35,1017.64,2053.15,3070.33,2822.05,3181.08,599.98,607.77,43.15,0000 0000 0000 0000 000000
2017-10-30 04:45:05,0.00,1.18,0.00,17.63,20.87,23.91,14.22,46.36,1017.74,2053.03,3070.00,2822.00,3180.99,600.10,607.80,43.20,0000 0000 0000 0000 000000
2017-10-30 04:50:06,0.02,1.18,0.00,17.61,20.89,23.93,14.12,46.45,1017.67,2053.02,3069.57,2821.94,3180.61,599.88,607.59,43.25,0000 0000 0000 0000 000000
2017-10-30 04:55:08,0.03,1.18,0.00,17.64,20.89,23.95,14.23,46.48,1017.62,2053.01,3069.03,2821.40,3180.04,599.85,607.55,43.30,0000 0000 0000 0000 000000
2017-10-30 05:00:09,0.01,1.18,0.00,17.65,20.91,23.97,14.20,46.52,1017.61,2053.00,3068.80,2821.01,3179.99,599.92,607.51,43.35,0000 0000 0000 0000 000000
2017-10-30 05:05:10,0.02,1.18,0.00,17.64,20.92,23.98,14.18,46.51,1017.59,2053.00,3068.04,2820.99,3179.50,599.90,607.52,43.40,0000 0000 0000 0000 000000
2017-10-30 05:10:11,0.04,1.18,0.00,17.65,20.92,24.00,14.16,46.53,1017.60,2053.00,3067.41,2820.50,3179.02,599.71,607.36,43.45,0000 0000 0000 0000 000000
2017-10-30 05:15:12,0.01,1.18,0.00,17.65,20.94,24.02,14.15,46.49,1017.60,2053.00,3067.00,2820.02,3178.89,599.93,607.47,43.50,0000 0000 0000 0000 000000
2017-10-30 05:20:14,0.01,1.18,0.00,17.62,20.94,24.01,14.24,46.53,1017.60,2053.00,3066.97,2820.00,3178.14,599.86,607.50,43.55,0000 0000 0000 0000 000000
2017-10-30 05:25:15,0.00,1.18,0.00,17.66,20.94,24.01,14.23,46.57,1017.59,2052.98,3066.78,2819.99,3178.00,599.90,607.39,43.60,0000 0000 0000 0000 000000
2017-10-30 05:30:16,0.01,1.19,0.00,17.67,20.95,23.97,14.21,46.42,1017.62,2052.99,3066.10,2819.89,3177.94,600.17,607.75,43.65,0000 0000 0000 0000 000000
2017-10-30 05:35:18,0.03,1.19,0.00,17.66,20.96,24.02,14.14,46.47,1017.63,2052.97,3065.99,2819.24,3177.30,600.06,607.59,43.70,0000 0000 0000 0000 000000
2017-10-30 05:40:19,0.01,1.19,0.00,17.67,20.97,24.04,14.24,46.44,1017.75,2052.96,3065.47,2819.01,3177.01,599.95,607.67,43.75,0000 0000 0000 0000 000000
2017-10-30 05:45:20,0.00,1.19,0.00,17.61,20.97,24.04,14.34,46.47,1017.78,2052.97,3065.02,2819.00,3176.98,600.30,607.93,43.80,0000 0000 0000 0000 000000
2017-10-30 05:50:21,0.00,1.19,0.00,17.64,20.97,24.03,14.23,46.43,1017.82,2052.95,3064.97,2818.98,3176.67,600.17,607.90,43.85,0000 0000 0000 0000 000000
2017-10-30 05:55:23,0.03,1.19,0.00,17.66,20.97,24.06,14.21,46.48,1017.95,2052.85,3064.46,2818.64,3176.05,600.11,607.83,43.90,0000 0000 0000 0000 000000
2017-10-30 06:00:24,0.02,1.19,0.00,17.61,20.96,24.02,14.21,46.54,1017.86,2052.85,3064.01,2818.10,3176.00,600.01,607.88,43.95,0000 0000 0000 0000 000000
2017-10-30 06:05:25,0.01,1.19,0.00,17.62,20.95,24.07,14.17,46.57,1017.82,2052.91,3063.96,2818.01,3175.98,600.03,607.86,44.01,0000 0000 0000 0000 000000
2017-10-30 06:10:27,0.01,1.19,0.00,17.60,20.94,24.05,14.17,46.48,1018.00,2052.88,3063.28,2818.00,3175.80,599.96,607.88,44.06,0000 0000 0000 0000 000000
2017-10-30 06:15:28,0.01,1.19,0.00,17.61,20.94,24.05,14.32,46.52,1018.08,2052.85,3062.97,2817.97,3175.11,600.29,608.22,44.11,0000 0000 0000 0000 000000
2017-10-30 06:20:29,0.03,1.19,0.00,17.57,20.94,24.09,14.32,46.52,1018.08,2052.92,3062.39,2817.84,3175.01,600.22,608.19,44.16,0000 0000 0000 0000 000000
2017-10-30 06:25:30,0.02,1.20,0.00,17.61,20.94,24.15,14.23,46.50,1018.08,2052.97,3062.00,2817.29,3174.97,600.14,608.07,44.21,0000 0000 0000 0000 000000
2017-10-30 06:30:32,0.00,1.20,0.00,17.61,20.93,24.07,14.13,46.63,1018.08,2052.97,3061.99,2817.06,3174.87,599.72,607.71,44.26,0000 0000 0000 0000 000000
2017-10-30 06:35:33,0.02,1.20,0.00,17.62,20.92,24.06,14.30,46.55,1018.08,2052.96,3061.70,2817.00,3174.23,600.12,608.18,44.31,0000 0000 0000 0000 000000
2017-10-30 06:40:34,0.01,1.20,0.00,17.61,20.92,24.06,14.28,46.63,1018.09,2052.97,3061.03,2817.00,3174.01,600.06,608.00,44.36,0000 0000 0000 0000 000000
2017-10-30 06:45:36,-0.00,1.20,0.00,17.61,20.92,24.03,14.15,46.62,1018.08,2052.97,3061.00,2816.98,3174.00,600.11,608.11,44.41,0000 0000 0000 0000 000000
2017-10-30 06:50:37,0.02,1.20,0.00,17.61,20.92,24.05,14.22,46.69,1018.08,2052.96,3060.37,2816.76,3173.96,600.14,608.25,44.46,0000 0000 0000 0000 000000
2017-10-30 06:55:38,0.02,1.20,0.00,17.59,20.92,24.06,14.24,46.69,1018.08,2052.97,3060.02,2816.26,3173.52,599.86,607.85,44.51,0000 0000 0000 0000 000000
2017-10-30 07:00:39,0.01,1.20,0.00,17.60,20.91,24.11,14.23,46.63,1018.09,2052.98,3059.99,2816.04,3173.04,599.98,608.18,44.56,0000 0000 0000 0000 000000
2017-10-30 07:05:40,-0.00,1.20,0.00,17.57,20.90,24.04,14.25,46.64,1018.08,2052.95,3059.76,2816.00,3173.00,600.22,608.08,44.61,0000 0000 0000 0000 000000
2017-10-30 07:10:42,0.01,1.20,0.00,17.56,20.90,24.08,14.17,46.62,1018.08,2052.95,3059.07,2815.99,3172.94,599.80,607.82,44.66,0000 0000 0000 0000 000000
2017-10-30 07:15:43,0.01,1.20,0.00,17.52,20.89,24.10,14.31,46.68,1018.08,2052.98,3058.99,2815.98,3172.67,600.22,608.47,44.71,0000 0000 0000 0000 000000
2017-10-30 07:20:44,0.01,1.20,0.00,17.56,20.89,24.15,14.17,46.67,1018.08,2052.98,3058.96,2815.97,3172.13,599.83,607.83,44.76,0000 0000 0000 0000 000000
2017-10-30 07:25:46,0.02,1.20,0.00,17.56,20.89,24.08,14.23,46.67,1018.09,2052.98,3058.28,2815.73,3172.02,600.13,608.19,44.81,0000 0000 0000 0000 000000
2017-10-30 07:30:47,0.01,1.21,0.00,17.54,20.89,24.02,14.23,46.65,1018.21,2052.98,3058.04,2815.23,3172.00,599.98,608.22,44.86,0000 0000 0000 0000 000000
2017-10-30 07:35:49,0.01,1.21,0.00,17.54,20.87,24.05,14.36,46.78,1018.43,2052.97,3057.80,2815.02,3171.96,600.21,608.31,44.91,0000 0000 0000 0000 000000
2017-10-30 07:40:50,0.02,1.21,0.00,17.50,20.87,23.99,14.17,46.63,1018.49,2052.99,3057.07,2815.00,3171.59,599.96,608.29,44.97,0000 0000 0000 0000 000000
2017-10-30 07:45:51,0.00,1.21,0.00,17.51,20.87,23.98,14.23,46.70,1018.55,2052.99,3056.99,2814.99,3171.07,600.05,608.50,45.02,0000 0000 0000 0000 000000
2017-10-30 07:50:52,0.01,1.21,0.00,17.52,20.87,24.04,14.23,46.63,1018.56,2052.99,3056.51,2814.96,3171.00,600.10,608.53,45.07,0000 0000 0000 0000 000000
2017-10-30 07:55:54,0.01,1.21,0.00,17.51,20.86,24.03,14.22,46.67,1018.57,2052.99,3056.06,2814.67,3170.98,600.32,608.75,45.12,0000 0000 0000 0000 000000
2017-10-30 08:00:55,0.02,1.21,0.00,17.49,20.84,24.02,14.20,46.69,1018.57,2052.99,3055.99,2814.13,3170.90,600.08,608.35,45.17,0000 0000 0000 0000 000000
2017-10-30 08:05:56,0.01,1.21,0.00,17.47,20.84,23.98,14.27,46.70,1018.57,2052.99,3055.97,2814.02,3170.13,599.83,608.40,45.22,0000 0000 0000 0000 000000
2017-10-30 08:10:57,0.01,1.21,0.00,17.46,20.84,24.02,14.22,46.73,1018.57,2052.99,3055.42,2814.00,3170.01,600.11,608.71,45.27,0000 0000 0000 0000 000000
2017-10-30 08:15:59,0.00,1.21,0.00,17.44,20.83,23.96,14.22,46.60,1018.57,2052.99,3054.99,2813.99,3170.00,599.95,608.58,45.32,0000 0000 0000 0000 000000
2017-10-30 08:21:00,0.00,1.21,0.00,17.43,20.82,24.02,14.29,46.76,1018.57,2053.00,3054.90,2813.96,3169.92,600.04,608.62,45.37,0000 0000 0000 0000 000000
2017-10-30 08:26:02,0.03,1.21,0.00,17.41,20.82,23.97,14.25,46.66,1018.57,2053.00,3054.37,2813.73,3169.38,599.99,608.65,45.42,0000 0000 0000 0000 000000
2017-10-30 08:31:03,0.02,1.21,0.00,17.40,20.82,23.99,14.23,46.72,1018.57,2053.00,3054.00,2813.17,3169.12,599.92,608.72,45.47,0000 0000 0000 0000 000000
2017-10-30 08:36:04,0.01,1.22,0.00,17.38,20.80,23.98,14.24,46.67,1018.57,2053.01,3053.49,2813.02,3169.00,599.77,608.49,45.52,0000 0000 0000 0000 000000
2017-10-30 08:41:06,0.00,1.22,0.00,17.37,20.79,23.99,14.24,46.79,1018.57,2053.02,3053.03,2813.00,3169.00,600.00,608.71,45.57,0000 0000 0000 0000 000000
2017-10-30 08:46:07,1.34,1.25,0.00,17.39,20.79,23.98,14.21,46.76,1018.57,2053.02,3033.68,2802.65,3157.42,599.52,608.14,45.62,0000 0000 0000 0000 000000
2017-10-30 08:51:08,0.41,1.30,0.00,17.38,20.79,23.97,14.23,46.73,1018.57,2053.01,3015.34,2792.56,3146.17,600.09,608.86,45.67,0000 0000 0000 0000 000000
2017-10-30 08:56:09,0.02,1.31,0.00,17.36,20.78,23.98,14.29,46.75,1018.57,2053.00,3013.95,2791.62,3145.01,600.11,608.88,45.72,0000 0000 0000 0000 000000
2017-10-30 09:01:10,0.03,1.31,0.00,17.35,20.77,23.97,14.30,46.67,1018.57,2053.00,3013.30,2791.14,3144.94,600.18,608.84,45.77,0000 0000 0000 0000 000000
2017-10-30 09:06:11,0.01,1.31,0.00,17.35,20.77,23.94,14.24,46.73,1018.57,2053.01,3013.02,2791.03,3144.68,599.79,608.58,45.82,0000 0000 0000 0000 000000
2017-10-30 09:11:13,0.02,1.31,0.00,17.35,20.76,23.92,14.27,46.67,1018.57,2053.04,3012.73,2791.00,3144.13,600.16,609.10,45.88,0000 0000 0000 0000 000000
2017-10-30 09:16:14,0.00,1.31,0.00,17.32,20.74,23.96,14.30,46.79,1018.56,2053.04,3012.16,2790.98,3144.00,600.36,609.19,45.93,0000 0000 0000 0000 000000
2017-10-30 09:21:15,0.00,1.31,0.00,17.29,20.74,23.93,14.36,46.79,1018.56,2053.06,3012.00,2790.97,3144.00,599.96,608.86,45.98,0000 0000 0000 0000 000000
2017-10-30 09:26:16,0.04,1.31,0.00,17.32,20.73,23.93,14.25,46.82,1018.56,2053.14,3011.56,2790.53,3143.97,600.22,609.07,46.03,0000 0000 0000 0000 000000
2017-10-30 09:31:18,0.03,1.31,0.00,17.28,20.72,23.90,14.25,46.84,1018.56,2053.23,3011.07,2790.11,3143.55,599.91,608.94,46.08,0000 0000 0000 0000 000000
2017-10-30 09:36:19,-0.00,1.31,0.00,17.26,20.72,23.93,14.29,46.73,1018.53,2053.16,3010.98,2790.01,3143.03,599.98,608.95,46.13,0000 0000 0000 0000 000000
2017-10-30 09:41:20,0.02,1.31,0.00,17.28,20.70,23.86,14.33,46.74,1018.56,2053.26,3010.36,2790.00,3143.00,600.11,609.16,46.18,0000 0000 0000 0000 000000
2017-10-30 09:46:21,0.07,1.32,0.00,17.25,20.69,23.85,14.25,46.67,1018.54,2053.83,3010.00,2789.99,3142.98,600.33,609.21,46.23,0000 0000 0000 0000 000000
2017-10-30 09:51:23,-0.00,1.32,0.00,17.23,20.69,23.82,14.28,46.69,1018.51,2053.86,3010.00,2789.98,3142.89,600.09,609.15,46.28,0000 0000 0000 0000 000000
2017-10-30 09:56:24,0.01,1.32,0.00,17.24,20.67,23.85,14.25,46.70,1018.39,2053.84,3009.96,2789.92,3142.41,599.78,608.79,46.33,0000 0000 0000 0000 000000
2017-10-30 10:01:25,0.03,1.32,0.00,17.24,20.67,23.83,14.25,46.85,1018.52,2053.89,3009.44,2789.56,3142.06,600.08,609.17,46.38,0000 0000 0000 0000 000000
2017-10-30 10:06:26,0.01,1.32,0.00,17.22,20.65,23.84,14.22,46.66,1018.53,2053.93,3009.04,2789.15,3142.01,599.66,608.70,46.43,0000 0000 0000 0000 000000
2017-10-30 10:11:28,0.01,1.32,0.00,17.23,20.64,23.82,14.26,46.75,1018.51,2053.96,3008.99,2789.04,3142.00,600.01,608.96,46.48,0000 0000 0000 0000 000000
2017-10-30 10:16:29,0.02,1.32,0.00,17.20,20.64,23.82,14.23,46.69,1018.54,2053.97,3008.38,2789.01,3141.98,599.81,608.89,46.53,0000 0000 0000 0000 000000
2017-10-30 10:21:29,0.00,1.32,0.00,17.18,20.62,23.89,14.28,46.79,1018.45,2053.99,3008.01,2789.00,3141.91,600.33,609.37,46.58,0000 0000 0000 0000 000000
2017-10-30 10:26:30,0.01,1.32,0.00,17.17,20.62,23.88,14.30,46.87,1018.37,2053.99,3007.99,2788.98,3141.25,599.88,608.93,46.63,0000 0000 0000 0000 000000
2017-10-30 10:31:32,0.01,1.32,0.00,17.15,20.60,23.83,14.23,46.82,1018.39,2053.99,3007.56,2788.86,3141.01,599.89,609.09,46.68,0000 0000 0000 0000 000000
2017-10-30 10:36:33,0.02,1.33,0.00,17.16,20.59,23.82,14.29,46.81,1018.42,2053.99,3007.04,2788.24,3141.00,600.24,609.36,46.73,0000 0000 0000 0000 000000
2017-10-30 10:41:34,0.00,1.33,0.00,17.16,20.59,23.77,14.29,46.80,1018.35,2053.99,3007.00,2788.05,3140.97,600.10,609.18,46.78,0000 0000 0000 0000 000000
2017-10-30 10:46:36,0.01,1.33,0.00,17.13,20.57,23.80,14.27,46.71,1018.40,2053.99,3006.84,2788.00,3140.47,599.74,608.87,46.84,0000 0000 0000 0000 000000
2017-10-30 10:51:37,0.01,1.33,0.00,17.12,20.57,23.79,14.25,46.77,1018.33,2053.99,3006.11,2788.00,3140.13,600.08,609.26,46.89,0000 0000 0000 0000 000000
2017-10-30 10:56:39,0.00,1.33,0.00,17.12,20.55,23.74,14.14,46.72,1018.18,2053.99,3005.98,2787.98,3140.02,600.07,609.21,46.94,0000 0000 0000 0000 000000
2017-10-30 11:01:40,0.01,1.33,0.00,17.10,20.54,23.70,14.24,46.78,1018.14,2054.01,3005.59,2787.92,3139.99,600.04,609.10,46.99,0000 0000 0000 0000 000000
2017-10-30 11:06:41,0.03,1.33,0.00,17.10,20.54,23.71,14.29,46.76,1018.18,2054.01,3005.03,2787.36,3139.87,600.28,609.37,47.04,0000 0000 0000 0000 000000
2017-10-30 11:11:42,0.01,1.33,0.00,17.09,20.52,23.72,14.25,46.89,1018.11,2054.01,3005.00,2787.05,3139.27,599.68,608.73,47.09,0000 0000 0000 0000 000000
2017-10-30 11:16:44,0.01,1.33,0.00,17.09,20.52,23.66,14.28,46.86,1018.11,2054.05,3004.90,2787.03,3139.06,599.96,609.03,47.14,0000 0000 0000 0000 000000
2017-10-30 11:21:45,0.01,1.33,0.00,17.08,20.52,23.68,14.27,46.82,1018.10,2054.08,3004.39,2787.00,3139.00,600.01,608.99,47.19,0000 0000 0000 0000 000000
2017-10-30 11:26:46,0.00,1.33,0.00,17.08,20.50,23.66,14.21,46.77,1018.10,2054.05,3003.99,2786.99,3138.97,599.71,608.79,47.24,0000 0000 0000 0000 000000
2017-10-30 11:31:47,0.03,1.33,0.00,17.05,20.49,23.69,14.28,46.82,1018.09,2054.04,3003.55,2786.85,3138.43,600.00,609.20,47.29,0000 0000 0000 0000 000000
2017-10-30 11:36:49,0.02,1.33,0.00,17.05,20.49,23.68,14.26,46.74,1018.09,2054.07,3003.16,2786.64,3138.05,600.04,608.94,47.34,0000 0000 0000 0000 000000
2017-10-30 11:41:50,0.01,1.34,0.00,17.04,20.48,23.66,14.20,46.80,1018.08,2054.09,3002.99,2786.09,3138.00,599.93,609.12,47.39,0000 0000 0000 0000 000000
2017-10-30 11:46:51,0.01,1.34,0.00,17.04,20.47,23.64,14.29,46.65,1018.09,2054.10,3002.46,2786.00,3137.97,600.38,609.54,47.44,0000 0000 0000 0000 000000
2017-10-30 11:51:52,0.04,1.34,0.00,17.05,20.47,23.63,14.24,46.59,1018.08,2054.37,3002.01,2786.00,3137.90,600.01,609.15,47.49,0000 0000 0000 0000 000000
2017-10-30 11:56:54,0.04,1.34,0.00,17.03,20.46,23.62,14.30,46.76,1018.08,2054.65,3001.93,2785.99,3137.26,600.20,609.44,47.54,0000 0000 0000 0000 000000
2017-10-30 12:01:55,0.03,1.34,0.00,17.01,20.44,23.59,14.23,46.73,1018.08,2054.86,3001.18,2785.84,3137.03,600.05,609.04,47.59,0000 0000 0000 0000 000000
2017-10-30 12:06:56,0.02,1.34,0.00,17.01,20.44,23.61,14.25,46.80,1018.08,2054.95,3001.00,2785.45,3137.00,599.81,609.02,47.64,0000 0000 0000 0000 000000
2017-10-30 12:11:58,0.02,1.34,0.00,16.99,20.44,23.57,14.27,46.87,1018.08,2054.96,3000.65,2785.06,3136.98,600.06,609.34,47.69,0000 0000 0000 0000 000000
2017-10-30 12:16:59,0.01,1.35,0.00,16.98,20.43,23.57,14.22,46.77,1018.08,2054.98,3000.03,2785.00,3136.61,599.93,608.98,47.74,0000 0000 0000 0000 000000
2017-10-30 12:22:00,0.01,1.35,0.00,16.98,20.42,23.60,14.28,46.77,1018.07,2054.99,2999.92,2784.99,3136.04,599.87,609.13,47.80,0000 0000 0000 0000 000000
2017-10-30 12:27:01,-0.00,1.35,0.00,16.97,20.42,23.62,14.26,46.85,1018.06,2054.96,2999.75,2784.96,3135.98,599.86,609.15,47.85,0000 0000 0000 0000 000000
2017-10-30 12:32:02,0.03,1.35,0.00,16.96,20.42,23.59,14.27,46.81,1018.05,2054.94,2999.80,2784.60,3135.55,599.86,609.16,47.90,0000 0000 0000 0000 000000
2017-10-30 12:37:03,0.03,1.35,0.00,16.96,20.41,23.57,14.23,46.71,1018.04,2054.88,2999.05,2784.07,3135.05,599.65,608.99,47.95,0000 0000 0000 0000 000000
2017-10-30 12:42:05,0.02,1.35,0.00,16.94,20.40,23.53,14.29,46.79,1018.00,2054.97,2998.57,2784.01,3135.01,600.12,609.50,48.00,0000 0000 0000 0000 000000
2017-10-30 12:47:06,0.00,1.35,0.00,16.93,20.39,23.56,14.25,46.70,1017.96,2054.98,2998.12,2784.00,3135.00,599.91,609.17,48.05,0000 0000 0000 0000 000000
2017-10-30 12:52:08,-0.00,1.35,0.00,16.93,20.39,23.52,14.29,46.91,1017.89,2054.97,2998.01,2784.00,3134.98,599.71,608.97,48.10,0000 0000 0000 0000 000000
2017-10-30 12:57:09,0.02,1.35,0.00,16.93,20.38,23.56,14.26,46.88,1017.75,2054.98,2997.36,2783.89,3134.88,599.97,609.15,48.15,0000 0000 0000 0000 000000